Theta_e
289 288 287 287 286 285 284 284 283 283 286 286 286 286 286 286 286 286 286 286 286 287 287 288 288 289 290
287 287 287 285 285 284 284 283 282 282 284 284 283 284 284 284 285 284 284 284 285 286 286 287 288 288 290
287 287 286 285 284 283 283 282 281 282 281 280 281 281 282 283 283 283 283 284 285 285 286 286 286 286 287
286 285 285 284 283 282 281 281 280 281 280 280 281 281 280 281 281 281 283 284 284 285 285 285 285 285 285
285 284 283 283 282 281 281 280 280 280 280 281 281 281 281 281 281 281 283 284 284 284 284 284 284 284 285
284 283 282 282 281 280 280 278 278 279 279 281 280 281 280 281 281 281 283 283 284 284 284 284 284 284 284
283 282 281 281 280 280 278 278 278 279 278 279 280 280 280 281 281 281 282 283 283 283 283 283 284 283 284
281 281 280 280 280 279 278 278 279 279 278 278 279 279 281 282 281 281 281 282 282 282 283 283 283 283 283
280 279 279 279 279 278 278 278 277 278 278 278 279 278 279 280 280 280 280 281 281 281 282 282 282 282 281
279 278 278 278 278 278 278 278 277 277 278 278 278 278 278 278 279 279 279 280 280 280 281 281 281 281 281
278 278 279 279 279 279 279 279 278 277 279 278 277 277 278 278 278 278 278 278 279 279 280 280 281 281 281
279 279 279 280 280 281 281 280 279 278 279 278 277 277 277 277 277 278 278 278 279 279 280 279 280 280 281
279 279 279 280 281 281 281 281 281 280 280 279 278 279 277 277 278 278 279 278 279 279 279 279 280 280 280
279 279 280 281 280 280 280 280 281 282 281 280 280 280 279 278 278 278 278 278 279 279 280 280 280 280 280
279 279 280 280 280 279 278 278 278 278 279 280 280 280 280 279 278 279 279 280 280 280 279 279 280 280 279
279 279 279 279 278 278 278 278 279 279 279 280 279 279 280 280 281 280 280 279 279 279 279 279 279 280 279
279 280 279 278 278 278 278 279 279 280 280 279 279 280 280 280 280 280 280 279 279 279 279 279 279 280 280
Wind_Speed
6 1 3 7 9 12 16 18 19 18 18 15 15 21 23 23 22 22 23 24 24 24 27 29 29 30 31
6 2 3 9 12 15 17 18 20 21 12 14 20 21 21 21 21 23 24 23 24 27 27 28 29 28 27
6 3 4 10 15 17 20 23 25 14 15 24 22 21 21 22 23 24 22 24 26 26 27 27 29 30 31
8 4 5 10 12 20 27 26 26 18 22 24 21 23 25 25 26 24 24 25 25 26 27 29 30 31 32
7 4 6 8 14 17 19 26 17 16 29 25 24 24 26 27 27 25 25 24 25 25 28 29 30 32 32
5 5 5 9 13 15 19 15 10 14 24 25 22 29 32 33 30 25 26 26 27 29 30 29 31 31 32
6 6 5 9 11 15 17 17 13 19 15 18 24 33 36 36 28 27 27 29 30 31 29 30 30 31 31
6 4 5 7 10 11 13 18 22 18 13 9 23 30 41 37 25 28 27 31 31 31 31 31 30 30 32
3 3 4 5 7 10 12 17 13 14 9 14 21 31 30 28 23 31 31 29 30 30 31 30 29 31 32
2 3 6 7 7 9 11 13 11 9 6 15 23 19 13 16 29 27 33 33 30 30 29 29 30 31 30
3 6 6 7 9 10 11 13 13 14 20 17 18 20 14 25 25 33 28 34 37 34 30 33 30 30 32
6 6 8 10 12 13 15 16 17 16 18 15 16 24 25 29 26 28 34 35 34 32 36 38 33 30 29
7 8 9 12 14 17 18 19 21 18 20 20 22 28 26 25 28 35 36 29 26 34 38 37 35 33 32
6 7 9 13 16 19 21 24 25 27 26 26 25 27 32 25 28 32 30 21 39 36 33 36 35 30 29
6 8 12 15 17 20 21 25 25 27 32 31 28 28 26 31 27 30 31 28 29 32 33 33 36 31 28
5 8 12 17 18 21 23 23 24 27 26 28 33 30 28 29 11 24 25 28 31 30 28 27 32 39 33
4 9 13 16 18 21 24 23 24 23 25 28 28 22 20 11 29 20 26 36 31 28 25 26 29 39 35
Wind_Direction
151 148 354 358 357 355 356 355 358 358 352 352 352 343 337 335 334 335 332 329 329 327 324 321 317 312 310
145 107 11 360 356 350 355 355 358 355 360 354 345 341 337 337 339 336 332 332 332 328 325 320 318 315 314
126 76 13 357 352 352 357 356 4 11 6 352 350 350 348 343 339 335 336 335 332 329 326 324 320 317 316
96 76 35 358 358 358 354 358 1 11 352 358 356 358 355 349 346 343 339 334 331 329 328 324 320 317 314
87 69 23 11 5 355 352 353 10 1 344 2 356 356 354 353 351 342 333 332 330 328 326 323 321 318 316
67 50 22 8 358 359 357 358 348 345 337 348 351 349 349 349 347 339 330 329 328 326 326 325 322 320 318
79 57 19 1 353 356 355 341 320 342 342 326 349 338 342 343 345 339 329 330 327 325 324 324 322 320 319
67 56 24 2 354 351 341 336 347 359 351 295 328 328 334 337 339 335 326 326 326 326 326 324 322 320 318
59 40 30 24 358 350 358 356 346 334 339 326 325 322 322 326 330 329 328 328 326 324 322 322 323 322 317
89 54 36 32 12 6 355 348 345 318 337 334 320 338 315 311 317 322 329 335 324 327 326 324 324 323 318
86 58 42 36 29 14 358 350 331 306 335 330 309 315 294 304 311 319 324 320 322 326 332 327 323 322 318
79 52 40 29 17 2 357 352 341 327 348 344 298 307 298 302 307 313 319 320 323 326 328 324 320 319 316
66 43 29 16 3 358 359 354 353 3 1 353 334 328 306 296 298 310 316 319 321 324 320 320 315 316 315
56 38 21 13 10 4 0 359 354 354 1 358 348 335 318 307 304 304 309 310 318 321 320 316 313 311 309
43 26 16 6 6 4 4 1 349 338 335 343 342 336 328 320 302 308 312 315 320 318 319 316 316 316 317
32 22 11 4 358 358 2 354 339 332 325 327 336 340 337 340 341 327 326 323 323 322 322 317 316 327 327
29 16 8 4 358 359 354 345 332 330 327 326 334 337 331 330 322 339 325 326 322 322 323 319 312 321 326